This is the latest recevied weather packets stored in our database for station/object OH7GGX-14. If no packets are shown the sender has not sent any weather packets the latest 10 day(s).
| Time | Temp. | Humidity | Pressure | Rain* | Wind** | Luminosity | Snow |
|---|---|---|---|---|---|---|---|
| 1778047291 | 6.11° C | 80% | 1008.2 hPa | 0 mm | - | - | - |
| 1778046691 | 5.56° C | 84% | 1008.3 hPa | 0 mm | - | - | - |
| 1778046091 | 5° C | 89% | 1008.1 hPa | 0 mm | - | - | - |
| 1778045491 | 5° C | 93% | 1008.2 hPa | 0 mm | - | - | - |
| 1778044891 | 4.44° C | 96% | 1008.2 hPa | 0 mm | - | - | - |
| 1778044291 | 3.89° C | 99% | 1008.1 hPa | 0 mm | - | - | - |
| 1778043691 | 3.33° C | 99% | 1008.2 hPa | 0 mm | - | - | - |
| 1778043091 | 2.78° C | 99% | 1008 hPa | 0 mm | - | - | - |
| 1778042491 | 2.78° C | 99% | 1007.9 hPa | 0 mm | - | - | - |
| 1778041891 | 2.22° C | 99% | 1007.8 hPa | 0 mm | - | - | - |
| 1778041291 | 1.67° C | 99% | 1007.8 hPa | 0 mm | - | - | - |
| 1778040691 | 1.11° C | 99% | 1007.7 hPa | 0 mm | - | - | - |
| 1778040091 | 0.56° C | 99% | 1007.7 hPa | 0 mm | - | - | - |
| 1778039491 | 0° C | 99% | 1007.8 hPa | 0 mm | - | - | - |
| 1778038891 | -0.56° C | 99% | 1007.6 hPa | 0 mm | - | - | - |
| 1778038291 | -0.56° C | 99% | 1007.5 hPa | 0 mm | - | - | - |
| 1778037691 | -1.11° C | 99% | 1007.6 hPa | 0 mm | - | - | - |
| 1778037091 | -1.11° C | 99% | 1007.4 hPa | 0 mm | - | - | - |
| 1778036491 | -1.67° C | 99% | 1007.5 hPa | 0 mm | - | - | - |
| 1778035891 | -1.67° C | 99% | 1007.3 hPa | 0 mm | - | - | - |
| 1778035293 | -2.22° C | 99% | 1007.2 hPa | 0 mm | - | - | - |
| 1778034691 | -2.22° C | 99% | 1007.1 hPa | 0 mm | - | - | - |
| 1778034091 | -2.22° C | 99% | 1007 hPa | 0 mm | - | - | - |
| 1778033491 | -2.22° C | 99% | 1006.9 hPa | 0 mm | - | - | - |
| 1778032891 | -2.22° C | 99% | 1006.9 hPa | 0 mm | - | - | - |
* Rain latest hour (hover to see other rain measurements)
** Current wind speed in m/s (hover to see current wind gust speed)